sat.trackr.live / text

‹ back to catalog

STARLINK-34463

NORAD 64598 · 2025-137E

PAYLOAD ACTIVE UNKNOWN

§ Identity

Operator
Country
US
Launch date
2025-06-25
Launch site
AFETR
Launch vehicle
Mass (kg)
RCS (m²)

Purposes: comms

External: N2YO · Heavens-Above · Gunter

§ Orbital elements

Epoch: 2026-09-20T23:03:08.850240Z

Period
93.85 min
Inclination
53.1584°
Eccentricity
0.0000797
Mean motion
15.34405505 rev/d
Perigee alt
462.1 km
Apogee alt
463.2 km
Semi-major
6,840.8 km
B*
6.1310e-4
RAAN
145.2500°
Arg perigee
87.4623°
Mean anomaly
272.6471°
Rev number
7,067

§ Raw data

STARLINK-344631 64598U 25137E   26263.96051910  .00020398  00000+0  61310-3 0  99952 64598  53.1584 145.2500 0000797  87.4623 272.6471 15.34405505 70671

JSON: /api/v1/satellites/64598 · /tle

For live sub-satellite position, see the globe view (requires WebGL).

§ Visibility from observer

Set your observer location to see the next 7 days of passes ≥ 10°. The values pass through the URL so the page stays shareable.

No JS? Fill the form by hand. The geolocation button needs JavaScript.